EW3861 Weather Reports


time (UTC)temp
C
wind
direction
speed
KPH
gust
KPH
rain 1hr
cm
rain 24hr
cm
rain mn
cm
humidity
%
barometer
mb
20260505001541 14 221 0.0 0.0 0.00 0.00 0.00 58 1008.9
20260505000008 14 208 0.0 0.0 0.00 0.00 0.00 57 1008.5
20260504234617 15 245 0.0 0.0 0.00 0.00 0.00 56 1008.4
20260504233041 15 205 0.0 0.0 0.00 0.00 0.00 54 1008.2
20260504231630 16 290 0.0 0.0 0.00 0.00 0.00 51 1008.0
20260504230057 16 219 0.0 0.0 0.00 0.00 0.00 50 1007.6
20260504224512 17 200 0.0 0.0 0.00 0.00 0.00 48 1007.3
20260504223107 18 217 0.0 0.0 0.00 0.00 0.00 45 1007.3
20260504221537 18 154 0.0 0.0 0.00 0.00 0.00 44 1007.2
20260504220110 18 234 0.0 0.0 0.00 0.00 0.00 44 1007.1
20260504214544 19 202 0.0 0.0 0.00 0.00 0.00 42 1007.1
20260504213004 20 188 0.0 0.0 0.00 0.00 0.00 39 1006.9
20260504211552 20 217 0.0 0.0 0.00 0.00 0.00 40 1006.8
20260504210004 20 221 0.0 0.0 0.00 0.00 0.00 38 1006.7
20260504204605 20 234 0.0 0.0 0.00 0.00 0.00 36 1006.7
20260504203011 21 217 0.0 0.0 0.00 0.00 0.00 34 1006.7
20260504201553 21 294 0.0 0.0 0.00 0.00 0.00 33 1006.7
20260504200013 21 314 0.0 0.0 0.00 0.00 0.00 33 1006.7
20260504194622 21 221 0.0 0.0 0.00 0.00 0.00 32 1006.8
20260504193042 21 203 0.0 0.0 0.00 0.00 0.00 32 1006.8
20260504191502 21 213 0.0 0.0 0.00 0.00 0.00 31 1006.8
20260504190056 21 314 0.0 0.0 0.00 0.00 0.00 32 1006.9
20260504184527 20 165 0.0 0.0 0.00 0.00 0.00 33 1007.1
20260504183118 21 142 0.0 0.0 0.00 0.00 0.00 32 1007.1
20260504181539 20 206 0.0 0.0 0.00 0.00 0.00 32 1007.3
20260504180016 20 196 0.0 0.0 0.00 0.00 0.00 33 1007.5
20260504174628 20 254 0.0 0.0 0.00 0.00 0.00 33 1007.6
20260504173052 20 227 0.0 0.0 0.00 0.00 0.00 32 1007.3
20260504171510 20 232 0.0 0.0 0.00 0.00 0.00 32 1007.4
20260504150113 17 302 0.0 0.0 0.00 0.00 0.00 39 1009.0
20260504081501 3 244 0.0 0.0 0.00 0.00 0.00 85 1010.0
20260504080113 3 244 0.0 0.0 0.00 0.00 0.00 84 1010.0
20260504070108 2 244 0.0 0.0 0.00 0.00 0.00 86 1010.0
20260504044516 1 244 0.0 0.0 0.00 0.00 0.00 83 1010.0
20260504043114 1 244 0.0 0.0 0.00 0.00 0.00 83 1009.9
20260504041518 1 244 0.0 0.0 0.00 0.00 0.00 82 1009.8
20260504040125 1 244 0.0 0.0 0.00 0.00 0.00 81 1009.7
20260504034535 2 244 0.0 0.0 0.00 0.00 0.00 80 1009.6
20260504033121 2 244 0.0 0.0 0.00 0.00 0.00 79 1009.4
20260504031553 2 244 0.0 0.0 0.00 0.00 0.00 77 1009.4
20260504030012 2 244 0.0 0.0 0.00 0.00 0.00 77 1009.3
20260504024633 3 244 0.0 0.0 0.00 0.00 0.00 75 1009.3
20260504023057 3 244 0.0 0.0 0.00 0.00 0.00 74 1009.2
20260504021632 4 244 0.0 0.0 0.00 0.00 0.00 70 1009.2
20260504020110 5 244 0.0 0.0 0.00 0.00 0.00 68 1009.2
20260504014604 5 244 0.0 0.0 0.00 0.00 0.00 65 1009.1
20260504013017 6 244 0.0 0.0 0.00 0.00 0.00 62 1008.9
20260504011611 6 244 0.0 0.0 0.00 0.00 0.00 58 1008.7
20260504010023 7 244 0.0 0.0 0.00 0.00 0.00 57 1008.6
20260504004503 8 244 0.0 0.0 0.00 0.00 0.00 56 1008.3
20260504003058 8 244 0.0 0.0 0.00 0.00 0.00 50 1008.2